Location: Castle Hill Houses
(40.8186°N, 73.8497°W)
Time: 09:42:12
(UTC+00:00)

Cosmos 1300 - Pass Details

Date: 26 January 2020
Orbit: 511 x 515 km, 82.5° (Epoch: 18 February)

Event Time Altitude Azimuth Distance (km) Brightness Sun altitude
Rises 11:16:19 0° 199° (SSW) 2,617 6.2 -10.6°
Reaches altitude 10° 11:18:30 10° 206° (SSW) 1,735 5.3 -10.2°
Maximum altitude 11:22:11 47° 281° (W) 692 2.9 -9.5°
Drops below altitude 10° 11:25:53 10° 356° (N) 1,747 5.2 -8.9°
Sets 11:28:05 0° 2° (N) 2,638 6.1 -8.5°
